Location: Bregenz
(47.5012°N, 9.7411°E)
Time: 17:46:17
(UTC+01:00)

ISS - Pass Details

Date: 09 December 2021
Orbit: 413 x 422 km, 51.6° (Epoch: 27 January)

Event Time Altitude Azimuth Distance (km) Brightness Sun altitude
Rises 17:03:40 0° 292° (WNW) 2,389 0.7 -5.7°
Reaches altitude 10° 17:05:53 10° 283° (WNW) 1,518 -0.1 -6.1°
Maximum altitude 17:09:01 35° 216° (SW) 703 -1.9 -6.5°
Drops below altitude 10° 17:12:08 10° 149° (SSE) 1,504 -1.0 -7.0°
Enters shadow 17:19:48 -15° 133° (SE) 4,571 1.3 -8.2°
